TimeEDT,TemperatureF,Dew PointF,Humidity,Sea Level PressureIn,VisibilityMPH,Wind Direction,Wind SpeedMPH,Gust SpeedMPH,PrecipitationIn,Events,Conditions,WindDirDegrees,DateUTC
12:53 AM,71.1,59.0,66,29.96,10.0,SSE,3.5,-,N/A,,Mostly Cloudy,160,2013-04-10 04:53:00
1:53 AM,71.1,59.0,66,29.95,10.0,South,5.8,-,N/A,,Overcast,170,2013-04-10 05:53:00
2:53 AM,70.0,57.9,65,29.93,10.0,South,4.6,-,N/A,,Clear,190,2013-04-10 06:53:00
3:53 AM,66.9,57.0,70,29.92,10.0,SE,3.5,-,N/A,,Clear,130,2013-04-10 07:53:00
4:53 AM,66.0,57.0,73,29.94,10.0,SE,3.5,-,N/A,,Clear,140,2013-04-10 08:53:00
5:53 AM,64.9,55.9,73,29.94,10.0,Calm,Calm,-,N/A,,Clear,0,2013-04-10 09:53:00
6:53 AM,64.0,55.9,75,29.95,10.0,Calm,Calm,-,N/A,,Scattered Clouds,0,2013-04-10 10:53:00
7:53 AM,66.0,55.9,70,29.95,10.0,SSE,5.8,-,N/A,,Overcast,160,2013-04-10 11:53:00
8:53 AM,69.1,57.0,65,29.97,10.0,SSW,3.5,-,N/A,,Overcast,200,2013-04-10 12:53:00
9:53 AM,72.0,59.0,64,29.98,10.0,SSW,10.4,18.4,N/A,,Overcast,210,2013-04-10 13:53:00
10:53 AM,73.9,60.1,62,29.98,10.0,SSW,9.2,-,N/A,,Overcast,210,2013-04-10 14:53:00
11:53 AM,79.0,61.0,54,29.96,10.0,SSW,13.8,20.7,N/A,,Mostly Cloudy,210,2013-04-10 15:53:00
12:53 PM,79.0,61.0,54,29.96,10.0,SSW,15.0,23.0,N/A,,Mostly Cloudy,200,2013-04-10 16:53:00
1:53 PM,82.0,60.1,47,29.93,10.0,SW,18.4,24.2,N/A,,Clear,230,2013-04-10 17:53:00
5:53 PM,84.0,59.0,43,29.82,10.0,SSW,16.1,26.5,N/A,,Mostly Cloudy,200,2013-04-10 21:53:00
6:53 PM,82.0,57.9,44,29.81,10.0,SW,16.1,25.3,N/A,,Clear,230,2013-04-10 22:53:00
7:53 PM,81.0,57.0,44,29.79,10.0,SSW,6.9,-,N/A,,Clear,200,2013-04-10 23:53:00
8:53 PM,79.0,57.0,47,29.78,10.0,SSE,3.5,-,N/A,,Clear,160,2013-04-11 00:53:00
9:53 PM,77.0,55.9,48,29.77,10.0,SSE,4.6,-,N/A,,Clear,150,2013-04-11 01:53:00
10:53 PM,75.9,55.0,48,29.78,10.0,South,3.5,-,N/A,,Clear,170,2013-04-11 02:53:00
11:53 PM,73.9,55.0,52,29.78,10.0,South,3.5,-,N/A,,Clear,190,2013-04-11 03:53:00